Location: Newark
(45.5000°N, 11.4167°E)
Time: 09:38:23
(UTC+00:00)

deb Explorer IX - All Passes

Search period start: 22 August 2019 00:00
Search period end: 01 September 2019 00:00
Orbit: 540 x 1111 km, 38.8° (Epoch: 20 August)

Date Brightness Start Highest point End Pass type
(mag) Time Alt. Az. Time Alt. Az. Time Alt. Az.
22 Aug - 11:11:07 10° S 11:15:14 19° SE 11:19:42 10° ESE daylight
22 Aug - 12:55:33 10° SW 13:01:28 41° SSE 13:08:04 10° E daylight
22 Aug - 14:41:49 10° WSW 14:48:21 50° S 14:55:24 10° ESE daylight
22 Aug - 16:28:51 10° W 16:35:15 36° SSW 16:41:49 10° SE daylight
22 Aug - 18:17:31 10° WSW 18:21:37 16° SW 18:25:41 10° S daylight
23 Aug - 10:49:11 10° S 10:53:09 19° SE 10:57:28 10° ESE daylight
23 Aug - 12:33:35 10° SW 12:39:21 40° SSE 12:45:51 10° E daylight
23 Aug - 14:19:48 10° WSW 14:26:13 49° S 14:33:11 10° ESE daylight
23 Aug - 16:06:48 10° W 16:13:06 35° SSW 16:19:39 10° SE daylight
23 Aug - 17:55:28 10° WSW 17:59:28 16° SW 18:03:28 10° S daylight
24 Aug - 10:27:17 10° S 10:31:04 18° SE 10:35:13 10° ESE daylight
24 Aug - 12:11:38 10° SW 12:17:15 40° SSE 12:23:37 10° E daylight
24 Aug - 13:57:49 10° WSW 14:04:04 49° S 14:10:59 10° ESE daylight
24 Aug - 15:44:45 10° W 15:50:56 35° SSW 15:57:27 10° SE daylight
24 Aug - 17:33:25 10° WSW 17:37:18 15° SW 17:41:13 10° S daylight
25 Aug - 10:05:23 10° S 10:09:00 18° SE 10:12:59 10° ESE daylight
25 Aug - 11:49:42 10° SW 11:55:09 39° SSE 12:01:23 10° E daylight
25 Aug - 13:35:50 10° WSW 13:41:55 48° S 13:48:44 10° ESE daylight
25 Aug - 15:22:44 10° W 15:28:46 34° SSW 15:35:13 10° SE daylight
25 Aug - 17:11:24 10° WSW 17:15:08 15° SW 17:18:56 10° S daylight
26 Aug - 09:43:29 10° S 09:46:57 17° SE 09:50:44 10° ESE daylight
26 Aug - 11:27:46 10° SW 11:33:03 39° SSE 11:39:08 10° E daylight
26 Aug - 13:13:52 10° WSW 13:19:48 47° S 13:26:30 10° ESE daylight
26 Aug - 15:00:43 10° W 15:06:37 33° SSW 15:12:58 10° SE daylight
26 Aug - 16:49:26 10° WSW 16:52:59 14° SW 16:56:36 10° S daylight
27 Aug - 09:21:36 10° S 09:24:54 17° SE 09:28:30 10° ESE daylight
27 Aug - 11:05:52 10° SW 11:10:59 38° SSE 11:16:54 10° E daylight
27 Aug - 12:51:55 10° WSW 12:57:41 47° S 13:04:15 10° ESE daylight
27 Aug - 14:38:43 10° W 14:44:27 33° SSW 14:50:43 10° SE daylight
27 Aug - 16:27:30 10° WSW 16:30:49 14° SW 16:34:14 10° S daylight
28 Aug - 08:59:45 10° S 09:02:52 16° SSE 09:06:16 10° ESE daylight
28 Aug - 10:43:58 10° SW 10:48:55 37° SSE 10:54:38 10° E daylight
28 Aug - 12:30:00 10° WSW 12:35:34 46° S 12:42:00 10° ESE daylight
28 Aug - 14:16:46 10° W 14:22:19 32° SSW 14:28:25 10° SE daylight
28 Aug - 16:05:36 10° WSW 16:08:40 13° SW 16:11:49 10° S daylight
29 Aug - 08:37:53 10° S 08:40:50 16° SSE 08:44:02 10° ESE daylight
29 Aug - 10:22:04 10° SW 10:26:52 37° SSE 10:32:25 10° E daylight
29 Aug - 12:08:04 10° WSW 12:13:28 45° S 12:19:44 10° ESE daylight
29 Aug - 13:54:48 10° W 14:00:11 31° SSW 14:06:09 10° SE daylight
29 Aug - 15:43:46 10° WSW 15:46:31 13° SW 15:49:22 10° SSW daylight
30 Aug - 08:16:01 10° S 08:18:49 15° SSE 08:21:49 10° ESE daylight
30 Aug - 10:00:11 10° SW 10:04:48 36° SSE 10:10:11 10° E daylight
30 Aug - 11:46:09 10° WSW 11:51:23 44° S 11:57:28 10° ESE daylight
30 Aug - 13:32:53 10° W 13:38:04 30° SSW 13:43:50 10° SE daylight
30 Aug - 15:22:00 10° WSW 15:24:23 12° SW 15:26:50 10° SSW daylight
31 Aug - 07:54:09 10° S 07:56:48 15° SSE 07:59:37 10° ESE daylight
31 Aug - 09:38:18 10° SW 09:42:46 35° SSE 09:47:57 10° ESE daylight
31 Aug - 11:24:15 10° WSW 11:29:18 42° S 11:35:13 10° ESE daylight
31 Aug - 13:10:57 10° WSW 13:15:56 28° SSW 13:21:32 10° SE daylight
31 Aug - 15:00:20 10° SW 15:02:15 11° SW 15:04:12 10° SSW daylight
